Location: Isle of Man Observatory
(54.1776°N, 4.6264°W)
Time: 08:34:38
(UTC+02:00)

ISS - Visible Passes

Search period start: 24 September 2017 00:00
Search period end: 04 October 2017 00:00
Orbit: 401 x 407 km, 51.6° (Epoch: 24 September)

Date Brightness Start Highest point End Pass type
(mag) Time Alt. Az. Time Alt. Az. Time Alt. Az.
26 Sep -1.4 22:02:03 10° SSW 22:02:34 13° S 22:02:34 13° S visible
27 Sep -1.8 21:10:45 10° S 21:12:21 13° SE 21:12:44 13° SE visible
27 Sep -1.0 22:45:07 10° SW 22:45:25 12° SW 22:45:25 12° SW visible
28 Sep -2.5 21:53:04 10° SW 21:55:24 27° S 21:55:24 27° S visible
29 Sep -2.3 21:01:13 10° SSW 21:03:45 21° SSE 21:05:17 16° ESE visible
29 Sep -1.7 22:36:36 10° WSW 22:37:55 21° WSW 22:37:55 21° WSW visible
30 Sep -3.3 21:44:23 10° SW 21:47:29 40° SSE 21:47:42 40° SSE visible
01 Oct -2.8 20:52:16 10° SW 20:55:13 31° SSE 20:57:23 15° ESE visible
01 Oct -2.2 22:28:10 10° WSW 22:30:02 30° WSW 22:30:02 30° WSW visible
02 Oct -3.5 21:35:51 10° WSW 21:39:02 51° S 21:39:39 43° SE visible
02 Oct -0.6 23:12:07 10° W 23:12:17 11° W 23:12:17 11° W visible
03 Oct -3.2 20:43:34 10° WSW 20:46:42 43° SSE 20:49:14 14° E visible
03 Oct -2.4 22:19:43 10° W 22:21:52 34° WSW 22:21:52 34° WSW visible
